OpenBCM V1.08-5-g2f4a (Linux)

Packet Radio Mailbox

IZ3LSV

[San Dona' di P. JN]

 Login: GUEST





  
CX2SA  > KEPS     31.12.07 00:17l 180 Lines 4721 Bytes #999 (0) @ AMSAT
BID : ORB07354.M
Read: GUEST
Subj: Orbital Elements  07354.MISC
Path: IZ3LSV<IW2OAZ<IK2XDE<DB0RES<DB0GOS<ON0AR<7M3TJZ<DK0WUE<I0TVL<IW8PGT<
      CX2SA
Sent: 071221/0233Z @:CX2SA.LAV.URY.SA #:26461 [Minas] FBB7.00e $:ORB07354.M
From: CX2SA@CX2SA.LAV.URY.SA
To  : KEPS@AMSAT


HR AMSAT ORBITAL ELEMENTS FOR MANNED AND MISCELLANEOUS SATELLITES
FROM WA5QGD FORT WORTH,TX December 20, 2007
Send Subscribe/unsubscribe to KEPS at 
http://www.amsat.org/mailman/listinfo/keps
BID: ORB07354.M
TO ALL RADIO AMATEURS BT

Satellite: CAPE1
Catalog number: 31130
Epoch time:      07353.91308586
Element set:    0201
Inclination:      098.0629 deg
RA of node:       059.7734 deg
Eccentricity:    0.0103235
Arg of perigee:   171.5589 deg
Mean anomaly:     188.7366 deg
Mean motion:   14.51913027 rev/day
Decay rate:       -2.0e-07 rev/day^2
Epoch rev:           03556
Checksum:              293

Satellite: MAST
Catalog number: 31126
Epoch time:      07353.24891175
Element set:     210
Inclination:      098.0650 deg
RA of node:       059.7087 deg
Eccentricity:    0.0095238
Arg of perigee:   172.0591 deg
Mean anomaly:     188.2177 deg
Mean motion:   14.53385260 rev/day
Decay rate:        9.4e-07 rev/day^2
Epoch rev:            3573
Checksum:              299

Satellite: FALCON
Catalog number: 30776
Epoch time:      07353.88134296
Element set:    0218
Inclination:      035.4323 deg
RA of node:       166.8733 deg
Eccentricity:    0.0001601
Arg of perigee:   291.7368 deg
Mean anomaly:     068.3177 deg
Mean motion:   15.02828622 rev/day
Decay rate:       5.20e-06 rev/day^2
Epoch rev:           04300
Checksum:              282

Satellite: FCAL
Catalog number: 29667
Epoch time:      07353.95393789
Element set:    0596
Inclination:      051.6300 deg
RA of node:       194.7200 deg
Eccentricity:    0.0009055
Arg of perigee:   001.5616 deg
Mean anomaly:     358.5400 deg
Mean motion:   15.97044468 rev/day
Decay rate:     4.0201e-04 rev/day^2
Epoch rev:           05759
Checksum:              310

Satellite: NCUBE2
Catalog number: 28897
Epoch time:      07353.68091398
Element set:    0431
Inclination:      098.1138 deg
RA of node:       246.6540 deg
Eccentricity:    0.0016351
Arg of perigee:   255.1465 deg
Mean anomaly:     104.7961 deg
Mean motion:   14.59783506 rev/day
Decay rate:       1.71e-06 rev/day^2
Epoch rev:           10643
Checksum:              315

Satellite: CO-58
Catalog number: 28895
Epoch time:      07353.42132659
Element set:    0902
Inclination:      098.1186 deg
RA of node:       246.4587 deg
Eccentricity:    0.0016835
Arg of perigee:   253.1328 deg
Mean anomaly:     106.8013 deg
Mean motion:   14.59616239 rev/day
Decay rate:        7.7e-07 rev/day^2
Epoch rev:           11411
Checksum:              320

Satellite: UWE-1
Catalog number: 28892
Epoch time:      07353.24260569
Element set:    0927
Inclination:      098.1133 deg
RA of node:       245.9993 deg
Eccentricity:    0.0016395
Arg of perigee:   253.4473 deg
Mean anomaly:     106.4917 deg
Mean motion:   14.59573534 rev/day
Decay rate:        5.8e-07 rev/day^2
Epoch rev:           11420
Checksum:              324

Satellite: OO-38
Catalog number: 26063
Epoch time:      07353.87942837
Element set:    0089
Inclination:      100.2174 deg
RA of node:       030.7346 deg
Eccentricity:    0.0036866
Arg of perigee:   357.9304 deg
Mean anomaly:     002.1717 deg
Mean motion:   14.35822919 rev/day
Decay rate:       -2.1e-07 rev/day^2
Epoch rev:           41369
Checksum:              309

Satellite: ISS
Catalog number: 25544
Epoch time:      07353.90428241
Element set:     538
Inclination:      051.6401 deg
RA of node:       226.2979 deg
Eccentricity:    0.0000865
Arg of perigee:   356.5715 deg
Mean anomaly:     177.1330 deg
Mean motion:   15.77810698 rev/day
Decay rate:     2.6225e-04 rev/day^2
Epoch rev:           52007
Checksum:              301

Satellite: PO-34
Catalog number: 25520
Epoch time:      07353.95505285
Element set:    0900
Inclination:      028.4609 deg
RA of node:       305.3346 deg
Eccentricity:    0.0005625
Arg of perigee:   124.1683 deg
Mean anomaly:     235.9443 deg
Mean motion:   15.17102498 rev/day
Decay rate:       5.59e-06 rev/day^2
Epoch rev:           50576
Checksum:              303

Satellite: UARS
Catalog number: 21701
Epoch time:      07353.94692422
Element set:    0254
Inclination:      056.9745 deg
RA of node:       226.8132 deg
Eccentricity:    0.0088426
Arg of perigee:   187.4921 deg
Mean anomaly:     172.4823 deg
Mean motion:   15.49934348 rev/day
Decay rate:      4.973e-05 rev/day^2
Epoch rev:           89453
Checksum:              335

Satellite: HUBBLE
Catalog number: 20580
Epoch time:      07353.54176846
Element set:    0039
Inclination:      028.4681 deg
RA of node:       061.3786 deg
Eccentricity:    0.0003719
Arg of perigee:   257.0894 deg
Mean anomaly:     102.9280 deg
Mean motion:   15.00316506 rev/day
Decay rate:       4.28e-06 rev/day^2
Epoch rev:           76782
Checksum:              303



Read previous mail | Read next mail


 07.07.2025 00:08:33lGo back Go up